LPE2008 SPZO-SPJC

Flight info

Callsign LPE2008
Flight time N/A
Altitude 32000
Route GAXUN UT321 UDENI UT332 PEROV
Aircraft A320/M-SDE3FGHIRWY/LB1

Departure

Time 2026-04-22 17:22
Airport Alejandro Velasco Astete International Airport (SPZO)

Arrival

Time N/A
Airport Jorge Chávez International Airport (SPJC)
Time Latitude Longitude Altitude Speed Heading
2026-04-22 17:13 -13.53724 -71.94322 10816 ft 0 kts 258°
2026-04-22 17:14 -13.53719 -71.94302 10816 ft 4 kts 236°
2026-04-22 17:14 -13.53700 -71.94288 10816 ft 4 kts 185°
2026-04-22 17:14 -13.53675 -71.94286 10816 ft 4 kts 212°
2026-04-22 17:15 -13.53669 -71.94286 10815 ft 1 kts 274°
2026-04-22 17:15 -13.53669 -71.94285 10815 ft 0 kts 275°
2026-04-22 17:18 -13.53669 -71.94287 10816 ft 5 kts 275°
2026-04-22 17:19 -13.53649 -71.94493 10816 ft 17 kts 276°
2026-04-22 17:19 -13.53625 -71.94731 10827 ft 16 kts 276°
2026-04-22 17:20 -13.53590 -71.95053 10855 ft 23 kts 276°
2026-04-22 17:20 -13.53561 -71.95356 10863 ft 23 kts 275°
2026-04-22 17:21 -13.53515 -71.95476 10868 ft 16 kts 353°
2026-04-22 17:21 -13.53421 -71.95390 10867 ft 0 kts 89°
2026-04-22 17:22 -13.53504 -71.94556 10820 ft 130 kts 96°
2026-04-22 17:22 -13.53619 -71.93429 10775 ft 186 kts 95°
2026-04-22 17:22 -13.53924 -71.90534 12112 ft 209 kts 95°
2026-04-22 17:23 -13.54170 -71.88982 12531 ft 232 kts 105°
2026-04-22 17:23 -13.55566 -71.85612 13419 ft 281 kts 109°
2026-04-22 17:23 -13.56256 -71.83636 13710 ft 306 kts 112°
2026-04-22 17:24 -13.57428 -71.81714 13903 ft 332 kts 128°
2026-04-22 17:24 -13.58936 -71.79801 14158 ft 357 kts 129°
2026-04-22 17:24 -13.60315 -71.77586 14453 ft 381 kts 110°
2026-04-22 17:24 -13.60770 -71.74840 14675 ft 403 kts 86°
2026-04-22 17:25 -13.60089 -71.72010 14936 ft 415 kts 62°
2026-04-22 17:25 -13.58313 -71.69753 15920 ft 401 kts 37°
2026-04-22 17:25 -13.55894 -71.68500 17204 ft 384 kts 13°
2026-04-22 17:25 -13.53298 -71.68394 18581 ft 369 kts 348°
2026-04-22 17:26 -13.51006 -71.69400 19831 ft 353 kts 322°
2026-04-22 17:26 -13.49445 -71.71262 21031 ft 342 kts 297°
2026-04-22 17:26 -13.48577 -71.73538 21753 ft 348 kts 290°
2026-04-22 17:26 -13.47763 -71.75960 21889 ft 368 kts 290°
2026-04-22 17:27 -13.46914 -71.78510 22047 ft 387 kts 290°
2026-04-22 17:27 -13.46034 -71.81176 22195 ft 402 kts 290°
2026-04-22 17:27 -13.45116 -71.83942 22344 ft 415 kts 290°
2026-04-22 17:27 -13.44124 -71.86765 22482 ft 426 kts 291°
2026-04-22 17:28 -13.43062 -71.89644 22617 ft 436 kts 292°
2026-04-22 17:28 -13.41957 -71.92575 22733 ft 444 kts 292°
2026-04-22 17:28 -13.40831 -71.95555 22849 ft 451 kts 292°
2026-04-22 17:28 -13.39691 -71.98585 22953 ft 458 kts 292°
2026-04-22 17:29 -13.38544 -72.01657 23055 ft 464 kts 291°
2026-04-22 17:29 -13.37410 -72.04727 23152 ft 469 kts 291°
2026-04-22 17:29 -13.36254 -72.07878 23244 ft 474 kts 291°
2026-04-22 17:29 -13.35090 -72.11059 23220 ft 477 kts 291°
2026-04-22 17:30 -13.33916 -72.14248 23448 ft 479 kts 291°
2026-04-22 17:30 -13.32729 -72.17453 23677 ft 481 kts 292°
2026-04-22 17:30 -13.31536 -72.20663 23871 ft 482 kts 292°
2026-04-22 17:30 -13.30337 -72.23881 24079 ft 483 kts 292°
2026-04-22 17:31 -13.29140 -72.27099 24368 ft 482 kts 292°
2026-04-22 17:31 -13.27947 -72.30313 24708 ft 481 kts 291°
2026-04-22 17:31 -13.26761 -72.33517 25017 ft 480 kts 291°